Flag for Switzerland Weather past 2 weeks in Weinfelden, Thurgau, Switzerland

Now
67 °F

Overcast.


Feels Like: 67 °F
Forecast: 54 / 83 °F
Wind: 1 mph from Southwest

Location: Konstanz

Current Time: Aug 1, 2014 at 12:31:08 PM

Latest Report: Aug 1, 2014 at 12:00 PM


Visibility: 14 mi

Pressure: 29.87 "Hg

Humidity: 73%

Dew point: 58 °F

Location of WeinfeldenLocation

Historic Weather in Weinfelden — Graph

°F

Weinfelden temperature yesterday

Maximum temperature yesterday: 77 °F (at 6:00 PM)
Minimum temperature yesterday: 62 °F (at 6:00 AM)
Average temperature yesterday: 68 °F

Past Weeks' High & Low Weather Summary

 TemperatureHumidityPressure
High91 °F (Jul 19, 6:00 PM)99% (Jul 23, 4:00 AM)30.15 "Hg (Jul 23, 4:00 AM)
Low58 °F (Aug 1, 6:00 AM)14% (Jul 18, 5:00 PM)29.70 "Hg (Jul 28, 7:00 PM)
Average68 °F74%29.91 "Hg
* Reported Jul 17 11:00 AM — Aug 1 11:00 AM, Weinfelden, Weather by CustomWeather, © 2014

Note: Actual official high and low records may vary slightly from our data, if they occured in-between our weather recording intervals... More about our weather records

Advertising

Weinfelden weather history for previous 24 hours

 ConditionsComfort  
Time TempWeatherWind HumidityBarometerVisibility
11:00 AM
Aug 1
66 °FOvercast.2 mph75%29.88 "Hg12 mi
10:00 AM65 °FOvercast.1 mph76%29.87 "Hg12 mi
9:00 AM64 °FPartly sunny.1 mph70%29.88 "Hg11 mi
8:00 AM62 °FPartly sunny.1 mph83%29.88 "Hg9 mi
7:00 AM58 °FPartly sunny.1 mph92%29.90 "Hg11 mi
6:00 AM58 °FScattered clouds.1 mph94%29.90 "Hg9 mi
5:00 AM59 °FClear.1 mph93%29.91 "Hg7 mi
4:00 AM59 °FClear.1 mph91%29.91 "Hg11 mi
3:00 AM60 °FClear.1 mph87%29.92 "Hg16 mi
2:00 AM61 °FClear.1 mph85%29.92 "Hg17 mi
1:00 AM63 °FClear.1 mph81%29.93 "Hg16 mi
12:00 AM65 °FClear.2 mph77%29.92 "Hg19 mi
11:00 PM
Jul 31
66 °FClear.3 mph74%29.92 "Hg19 mi
10:00 PM67 °FClear.2 mph73%29.91 "Hg22 mi
9:00 PM69 °FClear.1 mph71%29.90 "Hg19 mi
8:00 PM75 °FSunny.2 mph56%29.88 "Hg25 mi
7:00 PM76 °FSunny.2 mph55%29.89 "Hg22 mi
6:00 PM77 °FSunny.2 mph53%29.89 "Hg19 mi
5:00 PM77 °FPassing clouds.2 mph55%29.90 "Hg17 mi
4:00 PM76 °FPassing clouds.2 mph56%29.91 "Hg17 mi
3:00 PM74 °FPassing clouds.2 mph58%29.93 "Hg16 mi
2:00 PM72 °FPassing clouds.2 mph64%29.95 "Hg16 mi
1:00 PM69 °FPartly sunny.2 mph71%29.97 "Hg14 mi
12:00 PM71 °FPartly sunny.2 mph67%29.97 "Hg14 mi
Weather by CustomWeather, © 2014

See weather overviewHow to use our weather pages